Total_Precipitation_Accumulation
1.62 1.63 1.50 1.45 1.31 1.45 1.73 1.92 1.88 2.04 2.19 2.08 1.80 1.65 1.51 1.39 1.32 1.32 1.50 1.67 1.56 1.61 1.86 1.96 1.92 1.80 1.74 1.55 1.34 1.23 1.18 1.13 0.95 0.71 0.56 0.53 0.48 0.36 0.29 0.29 0.29 0.28 0.23
1.83 1.84 1.70 1.59 1.34 1.38 1.61 1.85 1.89 2.06 2.04 2.07 1.72 1.59 1.48 1.49 1.38 1.35 1.47 1.64 1.60 1.47 1.56 1.84 2.03 2.09 2.03 1.89 1.66 1.40 1.26 1.19 1.03 0.80 0.62 0.57 0.53 0.47 0.44 0.42 0.38 0.28 0.20
2.07 2.06 1.88 1.60 1.45 1.62 1.72 1.72 1.77 2.15 1.99 1.85 1.66 1.73 1.68 1.62 1.46 1.40 1.45 1.57 1.41 1.36 1.35 1.47 1.74 1.97 2.24 2.27 2.05 1.81 1.53 1.29 1.07 0.84 0.67 0.56 0.50 0.47 0.47 0.46 0.47 0.37 0.24
2.01 2.15 1.83 1.51 1.64 1.82 1.78 1.71 1.76 1.99 1.98 2.06 1.94 1.80 1.71 1.57 1.26 1.22 1.25 1.26 1.34 1.13 1.23 1.46 1.58 1.67 2.08 2.39 2.44 2.39 2.01 1.57 1.19 0.91 0.74 0.62 0.56 0.50 0.44 0.38 0.37 0.39 0.29
1.44 1.49 1.19 1.09 1.32 1.41 1.28 1.24 1.50 1.67 1.69 1.80 1.78 1.57 1.38 1.23 1.07 1.02 1.05 0.92 1.00 1.03 1.05 1.27 1.47 1.54 1.93 2.42 2.86 3.01 2.68 2.15 1.64 1.22 1.03 0.89 0.75 0.60 0.48 0.42 0.38 0.38 0.31
1.00 1.01 0.81 0.80 1.04 1.11 1.07 1.18 1.26 1.29 1.23 1.30 1.20 0.99 0.95 0.83 0.84 0.82 0.73 0.75 0.76 0.76 0.87 1.05 1.30 1.21 1.65 2.20 2.65 2.89 2.89 2.59 2.10 1.73 1.53 1.33 1.14 0.86 0.57 0.45 0.41 0.39 0.32
0.87 0.94 0.80 0.88 1.01 1.02 1.02 1.08 1.11 1.02 0.86 1.01 1.09 0.86 0.70 0.63 0.63 0.58 0.57 0.58 0.53 0.61 0.82 1.00 1.18 1.24 1.20 1.34 1.74 2.12 2.60 2.86 2.53 2.11 1.89 1.71 1.53 1.20 0.84 0.65 0.50 0.41 0.35
0.73 0.81 0.77 0.66 0.70 0.73 0.67 0.72 0.89 0.90 0.77 0.89 1.00 0.92 0.70 0.66 0.58 0.41 0.45 0.47 0.47 0.59 0.74 0.84 1.06 1.24 1.24 1.41 1.15 1.33 1.95 2.47 2.76 2.65 2.33 1.94 1.63 1.33 1.07 0.91 0.70 0.53 0.45
0.50 0.55 0.56 0.57 0.62 0.68 0.66 0.66 0.69 0.73 0.67 0.66 0.80 0.94 0.76 0.57 0.49 0.43 0.42 0.41 0.48 0.62 0.72 0.88 0.94 1.03 1.15 1.37 1.36 1.24 1.50 1.68 2.36 2.86 2.72 2.17 1.60 1.25 1.13 1.13 1.02 0.75 0.61
0.38 0.39 0.41 0.41 0.48 0.57 0.64 0.57 0.57 0.60 0.60 0.52 0.57 0.66 0.67 0.64 0.58 0.47 0.44 0.45 0.50 0.62 0.77 0.86 0.97 1.01 1.05 1.17 1.34 1.29 1.17 1.20 1.61 2.19 2.51 2.37 1.91 1.44 1.21 1.30 1.54 1.41 1.01
0.36 0.34 0.34 0.35 0.38 0.40 0.43 0.45 0.52 0.54 0.55 0.51 0.50 0.56 0.64 0.67 0.67 0.59 0.51 0.49 0.46 0.43 0.58 0.76 0.91 0.97 0.95 1.07 1.30 1.33 1.26 1.15 1.07 1.21 1.63 1.96 1.98 1.71 1.44 1.51 1.96 2.22 2.01
0.36 0.36 0.37 0.38 0.38 0.37 0.39 0.40 0.43 0.45 0.51 0.55 0.54 0.57 0.66 0.71 0.67 0.66 0.59 0.53 0.49 0.44 0.48 0.65 0.91 1.04 1.01 1.04 0.96 0.96 0.99 0.90 0.84 0.85 0.98 1.19 1.46 1.59 1.61 1.74 2.09 2.47 2.69
0.31 0.35 0.38 0.40 0.42 0.42 0.41 0.41 0.41 0.44 0.50 0.57 0.57 0.55 0.57 0.63 0.70 0.72 0.67 0.59 0.60 0.60 0.70 0.73 0.81 0.94 0.92 0.97 0.91 0.77 0.62 0.56 0.54 0.58 0.73 0.91 1.12 1.36 1.51 1.59 1.83 2.13 2.37
0.33 0.36 0.34 0.35 0.37 0.39 0.40 0.43 0.39 0.39 0.49 0.58 0.61 0.70 0.67 0.59 0.74 0.82 0.78 0.78 0.76 0.80 0.95 0.88 0.80 0.80 0.83 0.87 0.77 0.65 0.49 0.43 0.40 0.39 0.44 0.47 0.56 0.69 0.84 0.99 1.16 1.37 1.57
0.37 0.38 0.34 0.35 0.37 0.39 0.42 0.45 0.45 0.49 0.55 0.58 0.65 0.80 0.84 0.79 0.79 0.84 0.90 0.95 1.00 0.97 0.96 0.90 0.80 0.74 0.73 0.71 0.63 0.54 0.42 0.38 0.37 0.35 0.34 0.34 0.36 0.42 0.46 0.51 0.57 0.67 0.74
0.37 0.41 0.43 0.42 0.40 0.42 0.49 0.56 0.55 0.55 0.63 0.72 0.84 0.93 0.96 0.98 0.96 0.88 0.92 0.97 1.00 1.06 1.02 0.85 0.78 0.79 0.71 0.56 0.53 0.47 0.40 0.42 0.39 0.36 0.33 0.31 0.30 0.35 0.39 0.40 0.38 0.41 0.46
0.38 0.39 0.43 0.46 0.45 0.51 0.69 0.87 0.84 0.76 0.81 0.90 0.99 1.09 1.14 1.18 1.17 1.04 0.98 0.96 0.96 1.05 0.99 0.83 0.78 0.80 0.69 0.53 0.46 0.44 0.41 0.40 0.36 0.37 0.33 0.30 0.29 0.29 0.33 0.35 0.34 0.34 0.35
0.33 0.31 0.33 0.38 0.39 0.47 0.63 0.93 1.08 1.09 1.07 0.99 1.05 1.23 1.32 1.27 1.16 1.07 1.05 1.00 0.98 1.07 1.02 0.93 0.90 0.85 0.77 0.67 0.58 0.51 0.43 0.40 0.38 0.40 0.36 0.31 0.29 0.28 0.27 0.27 0.28 0.27 0.29
0.37 0.35 0.37 0.39 0.43 0.45 0.50 0.70 0.92 1.02 1.04 1.01 1.06 1.12 1.14 1.20 1.16 1.08 1.02 0.98 0.97 1.07 1.07 0.98 1.03 1.03 0.92 0.80 0.69 0.58 0.49 0.47 0.40 0.38 0.39 0.36 0.33 0.28 0.26 0.25 0.25 0.25 0.24
0.45 0.44 0.44 0.46 0.46 0.43 0.42 0.54 0.70 0.80 0.85 0.89 0.93 0.97 0.99 1.03 1.08 1.14 1.07 1.02 1.04 1.06 1.07 1.06 1.08 1.21 1.12 0.96 0.79 0.66 0.57 0.52 0.47 0.35 0.36 0.40 0.37 0.32 0.28 0.26 0.25 0.24 0.25
0.51 0.54 0.57 0.54 0.50 0.44 0.42 0.55 0.62 0.57 0.63 0.68 0.69 0.70 0.80 0.98 1.07 1.13 1.05 1.03 1.09 1.08 1.07 1.12 1.14 1.26 1.29 1.13 0.90 0.70 0.61 0.58 0.54 0.48 0.41 0.34 0.32 0.28 0.26 0.27 0.27 0.25 0.22
0.56 0.62 0.66 0.67 0.62 0.48 0.48 0.52 0.50 0.46 0.51 0.58 0.60 0.58 0.58 0.71 0.86 0.96 0.95 0.93 0.99 1.04 1.08 1.10 1.17 1.24 1.30 1.22 1.05 0.89 0.74 0.63 0.58 0.56 0.58 0.50 0.39 0.33 0.27 0.23 0.25 0.27 0.26
0.69 0.71 0.70 0.71 0.69 0.64 0.56 0.48 0.42 0.41 0.47 0.53 0.55 0.53 0.45 0.45 0.61 0.71 0.80 0.83 0.81 0.80 0.88 1.04 1.15 1.17 1.29 1.34 1.27 1.07 0.96 0.83 0.66 0.61 0.66 0.64 0.55 0.44 0.33 0.30 0.34 0.28 0.27
0.88 0.86 0.84 0.84 0.87 0.82 0.72 0.59 0.51 0.45 0.46 0.48 0.50 0.51 0.53 0.53 0.53 0.58 0.68 0.76 0.78 0.74 0.73 0.80 0.94 1.12 1.29 1.45 1.44 1.31 1.21 1.06 0.86 0.75 0.73 0.69 0.62 0.54 0.44 0.37 0.38 0.33 0.30
1.14 1.10 1.06 1.07 1.10 1.15 1.07 0.87 0.75 0.62 0.57 0.56 0.59 0.60 0.59 0.55 0.52 0.47 0.53 0.58 0.63 0.72 0.70 0.71 0.80 1.00 1.19 1.34 1.49 1.43 1.30 1.12 0.92 0.78 0.72 0.65 0.59 0.59 0.55 0.45 0.40 0.39 0.34
1.33 1.30 1.29 1.31 1.31 1.33 1.22 0.94 0.81 0.72 0.74 0.74 0.78 0.73 0.59 0.49 0.42 0.37 0.42 0.50 0.52 0.55 0.65 0.70 0.73 0.84 0.99 1.12 1.27 1.27 1.14 1.08 0.91 0.76 0.65 0.62 0.55 0.59 0.62 0.53 0.44 0.39 0.36